Location: Albuquerque Trailhead
(34.7934°N, 106.3736°W)
Time: 05:42:24
(UTC+00:00)

SL-16 R/B - Pass Details

Date: 20 June 2021
Orbit: 842 x 847 km, 71.0° (Epoch: 29 July)

Event Time Altitude Azimuth Distance (km) Brightness Sun altitude
Exits shadow 07:07:18 48° 312° (NW) 1,094 2.9 -31.8°
Drops below altitude 10° 07:12:17 10° 10° (N) 2,468 5.5 -31.8°
Sets 07:14:50 0° 16° (NNE) 3,406 6.4 -31.7°
